Sparta, TN

2:16 PM CST on November 17, 2019 (GMT -0600)
Upper Cumberland Regional

Weather History for KSRB - October, 2019

Change the Weather History Date:

Tuesday, October 22, 2019

  Actual Average (WUND) Record (WUND)
Temperature  
Mean Temperature 52 °F -  
Max Temperature 64 °F - - (-1)
Min Temperature 39 °F - - (-1)
Degree Days  
Heating Degree Days 14    
Growing Degree Days 2 (Base 50)    
Moisture  
Dew Point 42 °F    
Average Humidity 61    
Maximum Humidity 100    
Minimum Humidity 39    
Precipitation  
Precipitation 0.01 in - - ()
Sea Level Pressure  
Sea Level Pressure 29.98 in    
Wind  
Wind Speed 4 mph ()    
Max Wind Speed 13 mph    
Max Gust Speed 23 mph    
Visibility 10.0 miles    
Events      
Averages and records for this station are not official NWS values.
T = Trace of Precipitation, MM = Missing Value Source: Averaged Metar Reports

Daily Weather History Graph

Daily Weather History Graph

Search for Another Location

Airport or City:

Astronomy

Oct. 22, 2019 Rise Set
Actual Time 6:55 AM CDT 5:57 PM CDT
Civil Twilight 6:28 AM CDT 6:23 PM CDT
Nautical Twilight 5:59 AM CDT 6:53 PM CDT
Astronomical Twilight 5:29 AM CDT 7:23 PM CDT
Moon 12:19 AM CDT (10/22) 2:52 PM CDT (10/22)
Length of Visible Light 11h 54m
Length of Day
11h 02m
Last Quarter, 37% of the Moon is Illuminated
Oct 22
Last Quarter
Oct 27
New
Nov 4
First Quarter
Nov 12
Full
Nov 19
Last Quarter

Hourly Weather History & Observations

Time (CDT) Temp. Windchill Dew Point Humidity Pressure Visibility Wind Dir Wind Speed Gust Speed Precip Events Conditions
12:15 AM 60.8 °F - 59.0 °F 94% 29.86 in 9.0 mi WSW 4.6 mph - N/A   Overcast
12:35 AM 60.8 °F - 57.2 °F 88% 29.86 in 10.0 mi Calm Calm - N/A   Overcast
12:55 AM 60.8 °F - 59.0 °F 94% 29.87 in 10.0 mi Calm Calm - 0.01 in   Overcast
1:25 AM 59.0 °F - 59.0 °F 100% 29.88 in 10.0 mi Calm Calm - N/A   Unknown
11:15 AM 60.8 °F - 44.6 °F 55% 29.97 in - WSW 8.1 mph - N/A   Unknown
11:35 AM 62.6 °F - 42.8 °F 48% 29.97 in 10.0 mi West 8.1 mph 18.4 mph N/A   Unknown
11:55 AM 62.6 °F - 42.8 °F 48% 29.97 in 10.0 mi Variable 5.8 mph 12.7 mph N/A   Clear
12:15 PM 62.6 °F - 42.8 °F 48% 29.97 in 10.0 mi WSW 12.7 mph 19.6 mph N/A   Clear
12:35 PM 64.4 °F - 42.8 °F 45% 29.97 in 10.0 mi Variable 5.8 mph 13.8 mph N/A   Partly Cloudy
12:55 PM 62.6 °F - 39.2 °F 42% 29.96 in 10.0 mi West 12.7 mph 19.6 mph N/A   Clear
1:15 PM 64.4 °F - 39.2 °F 40% 29.95 in 10.0 mi WSW 10.4 mph 20.7 mph N/A   Clear
1:35 PM 64.4 °F - 41.0 °F 42% 29.95 in 10.0 mi West 12.7 mph - N/A   Partly Cloudy
1:55 PM 64.4 °F - 41.0 °F 42% 29.95 in 10.0 mi Variable 5.8 mph 23.0 mph N/A   Partly Cloudy
2:15 PM 64.4 °F - 41.0 °F 42% 29.95 in 10.0 mi SW 10.4 mph 16.1 mph N/A   Partly Cloudy
2:35 PM 64.4 °F - 41.0 °F 42% 29.95 in 10.0 mi WSW 6.9 mph 13.8 mph N/A   Partly Cloudy
2:55 PM 64.4 °F - 41.0 °F 42% 29.95 in 10.0 mi Variable 5.8 mph 15.0 mph N/A   Clear
3:15 PM 64.4 °F - 39.2 °F 40% 29.95 in 10.0 mi Variable 6.9 mph 16.1 mph N/A   Clear
3:35 PM 64.4 °F - 39.2 °F 40% 29.96 in 10.0 mi Variable 5.8 mph 17.3 mph N/A   Clear
3:55 PM 64.4 °F - 39.2 °F 40% 29.96 in 10.0 mi West 6.9 mph 17.3 mph N/A   Clear
4:15 PM 64.4 °F - 39.2 °F 40% 29.96 in 10.0 mi West 8.1 mph 19.6 mph N/A   Clear
4:35 PM 64.4 °F - 39.2 °F 40% 29.96 in 10.0 mi WSW 8.1 mph 17.3 mph N/A   Clear
4:55 PM 62.6 °F - 39.2 °F 42% 29.96 in 10.0 mi SW 4.6 mph - N/A   Clear
5:15 PM 62.6 °F - 37.4 °F 39% 29.96 in 10.0 mi Variable 4.6 mph 12.7 mph N/A   Clear
5:35 PM 60.8 °F - 37.4 °F 42% 29.97 in 10.0 mi WSW 4.6 mph - N/A   Clear
5:55 PM 59.0 °F - 39.2 °F 48% 29.97 in 10.0 mi SW 3.5 mph - N/A   Partly Cloudy
6:15 PM 57.2 °F - 39.2 °F 51% 29.97 in 10.0 mi SW 3.5 mph - N/A   Partly Cloudy
6:35 PM 51.8 °F - 41.0 °F 67% 29.98 in 10.0 mi Calm Calm - N/A   Clear
6:55 PM 48.2 °F - 41.0 °F 76% 30.00 in 10.0 mi Calm Calm - N/A   Clear
7:15 PM 50.0 °F - 41.0 °F 71% 30.00 in 10.0 mi Calm Calm - N/A   Clear
7:35 PM 48.2 °F - 41.0 °F 76% 30.01 in 10.0 mi SW 4.6 mph - N/A   Clear
7:55 PM 46.4 °F 44.3 °F 41.0 °F 81% 30.01 in 10.0 mi SW 4.6 mph - N/A   Clear
8:15 PM 48.2 °F - 41.0 °F 76% 30.02 in 10.0 mi SW 5.8 mph - N/A   Mostly Cloudy
8:35 PM 48.2 °F - 41.0 °F 76% 30.03 in 10.0 mi Calm Calm - N/A   Scattered Clouds
8:55 PM 51.8 °F - 41.0 °F 67% 30.04 in 10.0 mi Calm Calm - N/A   Scattered Clouds
9:15 PM 51.8 °F - 41.0 °F 67% 30.06 in 10.0 mi Variable 4.6 mph - N/A   Partly Cloudy
9:55 PM 51.8 °F - 41.0 °F 67% 30.07 in 10.0 mi Calm Calm - N/A   Partly Cloudy
10:15 PM 50.0 °F - 41.0 °F 71% 30.08 in 10.0 mi Calm Calm - N/A   Partly Cloudy
10:35 PM 50.0 °F - 39.2 °F 66% 30.08 in 10.0 mi Calm Calm - N/A   Clear
10:55 PM 42.8 °F - 39.2 °F 87% 30.08 in 10.0 mi Calm Calm - N/A   Clear
11:15 PM 39.2 °F - 37.4 °F 93% 30.08 in 10.0 mi Calm Calm - N/A   Clear
11:35 PM 39.2 °F 37.0 °F 37.4 °F 93% 30.08 in 10.0 mi SSW 3.5 mph - N/A   Clear
11:55 PM 39.2 °F 37.0 °F 37.4 °F 93% 30.08 in 10.0 mi SSW 3.5 mph - N/A   Clear